NAVSTAR 47 (USA 150)    
1 26360U 00025A   19264.99302520  .00000018  00000-0  00000+0 0  9994
2 26360  53.3806 120.4008 0047285 141.5155  37.7057  2.00569028141914
DELTA 2 DEB             
1 27764U 00025D   19264.19295828  .00262648  16496-5  21811-3 0  9994
2 27764  38.7217 223.3381 1362804 243.1025 102.4147 13.18956075474211